DW5963 Weather Reports


Display with metric or nautical units.
time (UTC)temp
F
wind
direction
speed
MPH
gust
MPH
rain 1hr
in
rain 24hr
in
rain mn
in
humidity
%
barometer
mb
20260505153016 38 360 15.0 0.0 0.00 0.00 0.00 43 1018.4
20260505152515 38 360 16.0 0.0 0.00 0.00 0.00 43 1018.4
20260505152014 38 360 17.0 0.0 0.00 0.00 0.00 42 1018.4
20260505151513 39 360 17.0 0.0 0.00 0.00 0.00 41 1018.4
20260505151013 39 360 16.0 0.0 0.00 0.00 0.00 42 1018.3
20260505150513 38 360 17.0 0.0 0.00 0.00 0.00 42 1018.3
20260505150111 39 360 16.0 0.0 0.00 0.00 0.00 42 1018.2
20260505140505 38 360 16.0 0.0 0.00 0.00 0.00 48 1017.8
20260505140106 38 360 15.0 0.0 0.00 0.00 0.00 51 1017.9
20260505130112 36 360 10.0 0.0 0.00 0.00 0.00 58 1017.3
20260505124558 36 360 10.0 0.0 0.00 0.00 0.00 59 1017.2
20260505124057 35 360 9.0 0.0 0.00 0.00 0.00 60 1017.2
20260505123556 35 360 8.0 0.0 0.00 0.00 0.00 61 1017.1
20260505123102 35 360 9.0 0.0 0.00 0.00 0.00 61 1017.1
20260505122555 35 360 8.0 0.0 0.00 0.00 0.00 61 1016.9
20260505122055 35 360 8.0 0.0 0.00 0.00 0.00 61 1016.9
20260505121556 35 360 9.0 0.0 0.00 0.00 0.00 61 1016.9
20260505121053 35 360 9.0 0.0 0.00 0.00 0.00 61 1016.8
20260505120553 35 360 8.0 0.0 0.00 0.00 0.00 63 1016.7
20260505120059 35 360 7.0 0.0 0.00 0.00 0.00 63 1016.7
20260505115552 35 360 7.0 0.0 0.00 0.00 0.00 63 1016.7
20260505115052 35 360 7.0 0.0 0.00 0.00 0.00 62 1016.7
20260505114552 35 360 7.0 0.0 0.00 0.00 0.00 62 1016.7
20260505114052 35 360 8.0 0.0 0.00 0.00 0.00 61 1016.6
20260505113552 35 360 8.0 0.0 0.00 0.00 0.00 61 1016.6
20260505113058 35 360 9.0 0.0 0.00 0.00 0.00 61 1016.6
20260505112550 35 360 8.0 0.0 0.00 0.00 0.00 61 1016.6
20260505112049 35 360 8.0 0.0 0.00 0.00 0.00 62 1016.5
20260505111549 35 360 8.0 0.0 0.00 0.00 0.00 63 1016.6
20260505111049 35 360 7.0 0.0 0.00 0.00 0.00 62 1016.6
20260505110548 35 360 7.0 0.0 0.00 0.00 0.00 63 1016.5
20260505102041 36 360 9.0 0.0 0.00 0.00 0.00 63 1016.3
20260505101548 36 360 8.0 0.0 0.00 0.00 0.00 63 1016.3
20260505101041 36 360 8.0 0.0 0.00 0.00 0.00 62 1016.3
20260505100544 36 360 8.0 0.0 0.00 0.00 0.00 62 1016.3
20260505100040 36 360 8.0 0.0 0.00 0.00 0.00 61 1016.2
20260505095545 36 360 8.0 0.0 0.00 0.00 0.00 61 1016.1
20260505095039 36 360 9.0 0.0 0.00 0.00 0.00 61 1016.2
20260505094539 36 360 9.0 0.0 0.00 0.00 0.00 60 1016.0
20260505094038 36 360 9.0 0.0 0.00 0.00 0.00 60 1016.0
20260505093542 36 360 8.0 0.0 0.00 0.00 0.00 60 1016.0
20260505093039 36 360 7.0 0.0 0.00 0.00 0.00 60 1015.9
20260505092539 36 360 8.0 0.0 0.00 0.00 0.00 60 1015.9
20260505092037 36 360 8.0 0.0 0.00 0.00 0.00 59 1015.9
20260505091537 36 360 7.0 0.0 0.00 0.00 0.00 59 1015.9
20260505091036 36 360 7.0 0.0 0.00 0.00 0.00 59 1015.8
20260505090536 36 360 7.0 0.0 0.00 0.00 0.00 59 1015.8
20260505090042 36 360 8.0 0.0 0.00 0.00 0.00 59 1015.9
20260505085535 36 360 8.0 0.0 0.00 0.00 0.00 59 1015.8
20260505085035 36 360 8.0 0.0 0.00 0.00 0.00 59 1015.8
20260505084546 36 360 7.0 0.0 0.00 0.00 0.00 59 1015.8
20260505084033 36 360 7.0 0.0 0.00 0.00 0.00 59 1015.8
20260505083533 36 360 8.0 0.0 0.00 0.00 0.00 59 1015.7
20260505083039 36 360 7.0 0.0 0.00 0.00 0.00 59 1015.7
20260505082533 36 360 6.0 0.0 0.00 0.00 0.00 59 1015.7
20260505082032 36 360 6.0 0.0 0.00 0.00 0.00 58 1015.7
20260505081533 36 360 6.0 0.0 0.00 0.00 0.00 58 1015.7
20260505081034 36 360 6.0 0.0 0.00 0.00 0.00 58 1015.6
20260505080531 36 360 5.0 0.0 0.00 0.00 0.00 58 1015.6
20260505080042 36 360 6.0 0.0 0.00 0.00 0.00 58 1015.8
20260505075533 36 360 6.0 0.0 0.00 0.00 0.00 58 1015.8
20260505075031 36 360 6.0 0.0 0.00 0.00 0.00 58 1015.7
20260505074531 36 360 6.0 0.0 0.00 0.00 0.00 58 1015.7
20260505074031 36 360 7.0 0.0 0.00 0.00 0.00 58 1015.6
20260505073531 36 360 7.0 0.0 0.00 0.00 0.00 58 1015.6
20260505073034 36 360 7.0 0.0 0.00 0.00 0.00 58 1015.6
20260505072531 36 360 6.0 0.0 0.00 0.00 0.00 57 1015.6
20260505072029 36 360 6.0 0.0 0.00 0.00 0.00 57 1015.5
20260505071542 37 360 7.0 0.0 0.00 0.00 0.00 57 1015.6
20260505071030 37 360 7.0 0.0 0.00 0.00 0.00 56 1015.6
20260505070528 37 360 8.0 0.0 0.00 0.00 0.00 56 1015.5
20260505070027 37 360 8.0 0.0 0.00 0.00 0.00 56 1015.5
20260505065528 37 360 8.0 0.0 0.00 0.00 0.00 56 1015.5
20260505065027 37 360 8.0 0.0 0.00 0.00 0.00 56 1015.5
20260505064533 37 360 9.0 0.0 0.00 0.00 0.00 56 1015.5
20260505064029 37 360 8.0 0.0 0.00 0.00 0.00 56 1015.4
20260505063526 37 360 8.0 0.0 0.00 0.00 0.00 56 1015.5
20260505063026 37 360 7.0 0.0 0.00 0.00 0.00 56 1015.4
20260505062525 37 360 7.0 0.0 0.00 0.00 0.00 56 1015.5
20260505062024 37 360 7.0 0.0 0.00 0.00 0.00 55 1015.4
20260505061527 37 360 7.0 0.0 0.00 0.00 0.00 55 1015.4
20260505061022 37 360 9.0 0.0 0.00 0.00 0.00 54 1015.4
20260505060522 37 360 9.0 0.0 0.00 0.00 0.00 54 1015.3
20260505060032 37 360 9.0 0.0 0.00 0.00 0.00 53 1015.3
20260505055522 37 360 9.0 0.0 0.00 0.00 0.00 53 1015.3
20260505055022 37 360 10.0 0.0 0.00 0.00 0.00 53 1015.2
20260505054522 37 360 9.0 0.0 0.00 0.00 0.00 53 1015.2
20260505054021 37 360 8.0 0.0 0.00 0.00 0.00 53 1015.2
20260505053520 38 360 9.0 0.0 0.00 0.00 0.00 53 1015.1
20260505053025 38 360 8.0 0.0 0.00 0.00 0.00 53 1015.1
20260505052520 38 360 9.0 0.0 0.00 0.00 0.00 53 1015.1
20260505052020 38 360 9.0 0.0 0.00 0.00 0.00 53 1015.0
20260505051520 38 360 8.0 0.0 0.00 0.00 0.00 53 1014.9
20260505051018 38 360 8.0 0.0 0.00 0.00 0.00 53 1014.9
20260505050518 38 360 8.0 0.0 0.00 0.00 0.00 53 1014.8
20260505041515 38 360 6.0 0.0 0.00 0.00 0.00 54 1014.6
20260505041015 38 360 6.0 0.0 0.00 0.00 0.00 54 1014.6
20260505040516 38 360 6.0 0.0 0.00 0.00 0.00 54 1014.6
20260505040016 38 360 5.0 0.0 0.00 0.00 0.00 55 1014.5
20260505035514 38 360 5.0 0.0 0.00 0.00 0.00 55 1014.5
20260505035017 38 360 5.0 0.0 0.00 0.00 0.00 55 1014.5
20260505034513 38 360 6.0 0.0 0.00 0.00 0.00 54 1014.5
20260505034014 38 360 6.0 0.0 0.00 0.00 0.00 54 1014.5
20260505033516 38 360 7.0 0.0 0.00 0.00 0.00 54 1014.5
20260505033012 38 360 7.0 0.0 0.00 0.00 0.00 54 1014.4
20260505032512 38 360 8.0 0.0 0.00 0.00 0.00 53 1014.4
20260505032010 38 360 9.0 0.0 0.00 0.00 0.00 53 1014.3
20260505031512 39 360 10.0 0.0 0.00 0.00 0.00 52 1014.3
20260505031012 39 360 11.0 0.0 0.00 0.00 0.00 52 1014.2
20260505030510 39 360 13.0 0.0 0.00 0.00 0.00 52 1014.1
20260505030009 39 360 13.0 0.0 0.00 0.00 0.00 51 1014.1
20260505025508 39 360 13.0 0.0 0.00 0.00 0.00 51 1014.0
20260505025006 39 360 12.0 0.0 0.00 0.00 0.00 52 1014.0
20260505024506 39 360 11.0 0.0 0.00 0.00 0.00 52 1013.9
20260505024010 39 360 11.0 0.0 0.00 0.00 0.00 51 1013.8
20260505023504 39 360 12.0 0.0 0.00 0.00 0.00 51 1013.7
20260505023004 39 360 14.0 0.0 0.00 0.00 0.00 50 1013.6
20260505022503 40 360 15.0 0.0 0.00 0.00 0.00 49 1013.5
20260505022006 40 360 14.0 0.0 0.00 0.00 0.00 49 1013.4
20260505021502 40 360 12.0 0.0 0.00 0.00 0.00 49 1013.2
20260505021001 40 360 12.0 0.0 0.00 0.00 0.00 49 1013.2
20260505020501 41 360 12.0 0.0 0.00 0.00 0.00 48 1013.1
20260505020105 41 360 13.0 0.0 0.00 0.00 0.00 48 1013.0
20260505015501 41 360 13.0 0.0 0.00 0.00 0.00 48 1012.9
20260505015001 41 360 13.0 0.0 0.00 0.00 0.00 47 1012.8
20260505014607 41 360 13.0 0.0 0.00 0.00 0.00 47 1012.8
20260505014103 41 360 14.0 0.0 0.00 0.00 0.00 47 1012.6
20260505013558 42 360 15.0 0.0 0.00 0.00 0.00 47 1012.5
20260505013058 42 360 14.0 0.0 0.00 0.00 0.00 46 1012.4
20260505012557 42 360 15.0 0.0 0.00 0.00 0.00 46 1012.4
20260505012056 42 360 16.0 0.0 0.00 0.00 0.00 45 1012.3
20260505011556 42 360 15.0 0.0 0.00 0.00 0.00 45 1012.2
20260505011054 42 360 15.0 0.0 0.00 0.00 0.00 46 1012.1
20260505010554 43 360 16.0 0.0 0.00 0.00 0.00 46 1012.0
20260505010055 43 360 17.0 0.0 0.00 0.00 0.00 45 1011.9
20260505005053 43 360 16.0 0.0 0.00 0.00 0.00 45 1011.8
20260505004556 43 360 17.0 0.0 0.00 0.00 0.00 45 1011.8
20260505004055 43 360 17.0 0.0 0.00 0.00 0.00 45 1011.8
20260505003551 43 360 17.0 0.0 0.00 0.00 0.00 45 1011.7
20260505003053 43 360 17.0 0.0 0.00 0.00 0.00 45 1011.7
20260505002556 43 360 16.0 0.0 0.00 0.00 0.00 45 1011.7
20260505002051 44 360 16.0 0.0 0.00 0.00 0.00 44 1011.7
20260505001550 44 360 18.0 0.0 0.00 0.00 0.00 44 1011.6
20260505001049 44 360 19.0 0.0 0.00 0.00 0.00 43 1011.5
20260505000549 45 360 19.0 0.0 0.00 0.00 0.00 43 1011.5
20260505000055 45 360 19.0 0.0 0.00 0.00 0.00 43 1011.5
20260504235051 46 360 19.0 0.0 0.00 0.00 0.00 42 1011.4
20260504234550 45 360 20.0 0.0 0.00 0.00 0.00 43 1011.4
20260504234049 46 360 20.0 0.0 0.00 0.00 0.00 43 1011.2
20260504233549 45 360 20.0 0.0 0.00 0.00 0.00 43 1011.1
20260504233049 45 360 19.0 0.0 0.00 0.00 0.00 42 1011.2
20260504232651 47 360 18.0 0.0 0.00 0.00 0.00 41 1011.1
20260504232049 47 360 18.0 0.0 0.00 0.00 0.00 41 1011.0
20260504231547 48 360 19.0 0.0 0.00 0.00 0.00 40 1011.0
20260504231046 48 360 18.0 0.0 0.00 0.00 0.00 40 1010.9
20260504230549 48 360 19.0 0.0 0.00 0.00 0.00 40 1010.7
20260504230050 47 360 18.0 0.0 0.00 0.00 0.00 41 1010.6
20260504225045 48 360 18.0 0.0 0.00 0.00 0.00 42 1010.6
20260504224548 48 360 20.0 0.0 0.00 0.00 0.00 41 1010.6
20260504224048 48 360 19.0 0.0 0.00 0.00 0.00 39 1010.5
20260504223547 49 360 17.0 0.0 0.00 0.00 0.00 40 1010.4
20260504223045 48 360 17.0 0.0 0.00 0.00 0.00 40 1010.5
20260504222547 48 360 18.0 0.0 0.00 0.00 0.00 41 1010.6
20260504222044 49 360 17.0 0.0 0.00 0.00 0.00 39 1010.4
20260504221545 49 360 16.0 0.0 0.00 0.00 0.00 41 1010.4
20260504221044 49 360 16.0 0.0 0.00 0.00 0.00 41 1010.4
20260504220544 49 360 17.0 0.0 0.00 0.00 0.00 42 1010.4
20260504220045 48 360 18.0 0.0 0.00 0.00 0.00 41 1010.4
20260504215045 48 360 19.0 0.0 0.00 0.00 0.00 42 1010.5
20260504214553 48 360 17.0 0.0 0.00 0.00 0.00 42 1010.3
20260504214044 48 360 15.0 0.0 0.00 0.00 0.00 41 1010.3
20260504213544 51 360 16.0 0.0 0.00 0.00 0.00 38 1010.4
20260504213043 49 360 15.0 0.0 0.00 0.00 0.00 42 1010.4
20260504212543 47 360 14.0 0.0 0.00 0.00 0.00 46 1010.4
20260504212045 47 360 15.0 0.0 0.00 0.00 0.00 49 1010.5
20260504211543 46 360 14.0 0.0 0.00 0.00 0.00 51 1010.6
20260504211043 46 360 14.0 0.0 0.00 0.00 0.00 50 1010.6
20260504210543 46 360 13.0 0.0 0.00 0.00 0.00 52 1010.6
20260504210055 45 360 13.0 0.0 0.00 0.00 0.00 53 1010.7
20260504205042 45 360 14.0 0.0 0.00 0.00 0.00 53 1010.8
20260504204557 45 360 15.0 0.0 0.00 0.00 0.00 51 1010.8
20260504204042 45 360 15.0 0.0 0.00 0.00 0.00 51 1010.7
20260504203542 45 360 15.0 0.0 0.00 0.00 0.00 51 1010.6
20260504203044 45 360 15.0 0.0 0.00 0.00 0.00 51 1010.6
20260504202542 45 360 15.0 0.0 0.00 0.00 0.00 51 1010.7
20260504202042 45 360 16.0 0.0 0.00 0.00 0.00 51 1010.6
20260504201541 45 360 16.0 0.0 0.00 0.00 0.00 50 1010.6
20260504201041 45 360 16.0 0.0 0.00 0.00 0.00 51 1010.6
20260504200541 45 360 16.0 0.0 0.00 0.00 0.00 50 1010.6
20260504200040 45 360 16.0 0.0 0.00 0.00 0.00 50 1010.6
20260504195041 45 360 15.0 0.0 0.00 0.00 0.00 49 1010.5
20260504194539 46 360 16.0 0.0 0.00 0.00 0.00 49 1010.6
20260504194039 45 360 16.0 0.0 0.00 0.00 0.00 49 1010.6
20260504193538 45 360 15.0 0.0 0.00 0.00 0.00 48 1010.5
20260504193038 45 360 15.0 0.0 0.00 0.00 0.00 47 1010.5
20260504192537 46 360 16.0 0.0 0.00 0.00 0.00 46 1010.4
20260504192037 46 360 18.0 0.0 0.00 0.00 0.00 45 1010.4
20260504191537 47 360 17.0 0.0 0.00 0.00 0.00 43 1010.3
20260504191037 47 360 16.0 0.0 0.00 0.00 0.00 45 1010.2
20260504190537 46 360 16.0 0.0 0.00 0.00 0.00 46 1010.3
20260504190036 46 360 15.0 0.0 0.00 0.00 0.00 44 1010.3
20260504185040 46 360 14.0 0.0 0.00 0.00 0.00 46 1010.3
20260504184537 46 360 14.0 0.0 0.00 0.00 0.00 47 1010.3
20260504184037 45 360 14.0 0.0 0.00 0.00 0.00 47 1010.3
20260504183537 45 360 14.0 0.0 0.00 0.00 0.00 48 1010.3
20260504183036 45 360 14.0 0.0 0.00 0.00 0.00 48 1010.4
20260504182536 45 360 14.0 0.0 0.00 0.00 0.00 48 1010.3
20260504182037 45 360 14.0 0.0 0.00 0.00 0.00 49 1010.4
20260504181536 44 360 15.0 0.0 0.00 0.00 0.00 49 1010.4
20260504181036 44 360 16.0 0.0 0.00 0.00 0.00 48 1010.3
20260504180536 45 360 17.0 0.0 0.00 0.00 0.00 48 1010.3
20260504180036 44 360 16.0 0.0 0.00 0.00 0.00 49 1010.4
20260504175035 44 360 17.0 0.0 0.00 0.00 0.00 48 1010.2
20260504174537 44 360 17.0 0.0 0.00 0.00 0.00 47 1010.3
20260504174034 45 360 18.0 0.0 0.00 0.00 0.00 46 1010.1
20260504173533 46 360 18.0 0.0 0.00 0.00 0.00 45 1010.1
20260504173039 46 360 18.0 0.0 0.00 0.00 0.00 48 1010.0
20260504172534 45 360 19.0 0.0 0.00 0.00 0.00 48 1010.1
20260504172032 45 360 20.0 0.0 0.00 0.00 0.00 48 1010.1
20260504171532 45 360 20.0 0.0 0.00 0.00 0.00 48 1009.9
20260504171033 45 360 20.0 0.0 0.00 0.00 0.00 51 1009.9
20260504170532 45 360 18.0 0.0 0.00 0.00 0.00 52 1009.9